Flag for Slovenia Weather past 2 weeks in Celje, Slovenia

Now
78 °F

Warm.


Feels Like: 79 °F
Forecast: 59 / 77 °F
Wind: 2 mph from Southeast

Location: Celje

Current Time: Jul 24, 2014 at 7:03:34 PM

Latest Report: Jul 24, 2014 at 6:00 PM


Visibility: N/A

Pressure: 29.82 "Hg

Humidity: 52%

Dew point: 59 °F

Location of CeljeLocation

Historic Weather in Celje — Graph

°F

Celje temperature yesterday

Maximum temperature yesterday: 82 °F (at 5:00 PM)
Minimum temperature yesterday: 64 °F (at 6:00 AM)
Average temperature yesterday: 70 °F

Past Weeks' High & Low Weather Summary

 TemperatureHumidityPressure
High89 °F (Jul 20, 3:00 PM)98% (Jul 11, 2:00 AM)30.11 "Hg (Jul 11, 2:00 AM)
Low54 °F (Jul 12, 4:00 AM)41% (Jul 23, 7:00 PM)29.69 "Hg (Jul 11, 5:00 PM)
Average68 °F78%29.91 "Hg
* Reported Jul 9 5:00 PM — Jul 24 5:00 PM, Celje, Weather by CustomWeather, © 2014

Note: Actual official high and low records may vary slightly from our data, if they occured in-between our weather recording intervals... More about our weather records

Advertising

Celje weather history for previous 24 hours

 ConditionsComfort  
Time TempWeatherWind HumidityBarometerVisibility
5:00 PM
Jul 24
77 °FMild.1 mph53%29.83 "HgN/A
4:00 PM80 °FWarm.1 mph47%29.82 "HgN/A
3:00 PM80 °FScattered clouds.5 mph44%29.82 "Hg31 mi
2:00 PM79 °FPassing clouds.3 mph48%29.83 "Hg31 mi
1:00 PM79 °FWarm.3 mph41%29.84 "HgN/A
12:00 PM78 °FWarm.2 mph42%29.85 "HgN/A
11:00 AM75 °FMild.1 mph49%29.85 "HgN/A
10:00 AM72 °FMild.1 mph50%29.86 "HgN/A
9:00 AM69 °FMild.3 mph66%29.87 "HgN/A
8:00 AM65 °FPassing clouds.2 mph80%29.88 "Hg31 mi
7:00 AM58 °FPassing clouds.No wind94%29.89 "Hg31 mi
6:00 AM55 °FCool.1 mph97%29.90 "HgN/A
5:00 AM56 °FCool.No wind95%29.90 "HgN/A
4:00 AM56 °FCool.1 mph96%29.89 "HgN/A
3:00 AM56 °FCool.1 mph95%29.89 "HgN/A
2:00 AM57 °FCool.2 mph94%29.90 "HgN/A
1:00 AM59 °FCool.No wind93%29.91 "HgN/A
12:00 AM60 °FCool.2 mph93%29.90 "HgN/A
11:00 PM
Jul 23
64 °FMild.1 mph85%29.89 "HgN/A
10:00 PM64 °FMild.3 mph84%29.89 "HgN/A
9:00 PM68 °FMild.2 mph75%29.86 "HgN/A
8:00 PM75 °FPassing clouds.2 mph60%29.83 "Hg31 mi
7:00 PM79 °FWarm.3 mph41%29.80 "HgN/A
Weather by CustomWeather, © 2014

See weather overviewHow to use our weather pages